EHI
0 0 0 0 0 0 0 0 0 0 1 3 4 6 12 20 29 39 43 45 49 55 61 68 73 75 74 72 70 68 62 50 35 20 13 10 7 2 1 4 7 9 9 10
0 0 0 0 0 0 0 0 0 0 1 2 3 4 7 16 29 39 45 48 51 58 66 72 76 79 79 76 74 72 66 55 39 23 14 9 6 2 1 4 7 9 9 10
0 0 0 0 0 0 0 0 0 0 1 3 4 3 4 12 24 35 43 49 54 61 68 73 79 84 86 83 79 75 70 60 45 32 23 17 13 9 5 4 5 8 10 11
0 0 0 0 0 0 0 0 0 0 1 2 4 4 4 9 18 27 37 46 57 65 69 73 80 86 89 87 82 76 70 62 50 41 36 32 25 17 8 3 2 5 8 10
0 0 0 0 0 0 0 0 0 0 0 1 2 3 4 7 14 22 32 46 59 69 72 75 81 87 90 88 83 78 73 65 54 47 44 40 30 18 8 3 2 4 6 6
0 0 0 0 0 0 0 0 0 0 0 0 0 1 2 5 11 20 31 47 63 71 75 78 82 85 87 87 85 82 76 68 59 52 47 40 29 19 11 6 4 5 6 6
0 0 0 0 0 0 0 0 0 0 0 0 0 0 1 4 11 20 31 45 61 72 76 79 81 82 82 84 85 82 77 71 63 56 48 40 30 23 17 12 8 8 8 8
0 0 0 0 0 0 0 0 0 0 0 0 0 0 2 6 11 21 30 41 56 69 73 75 77 78 78 79 80 79 77 73 67 58 48 38 31 27 22 16 11 9 8 8
0 0 0 0 0 0 0 0 0 0 0 0 0 1 4 9 15 21 30 40 52 62 67 69 72 74 74 73 75 75 74 71 68 60 48 37 32 29 26 20 14 9 7 6
0 0 0 0 0 0 0 0 0 0 0 0 0 1 4 10 17 23 31 41 50 56 62 66 69 71 71 69 70 72 70 68 66 61 51 38 31 29 28 23 16 11 6 3
0 0 0 0 0 0 0 0 0 0 0 0 0 0 4 11 19 25 32 40 47 53 59 65 69 70 70 69 69 69 68 66 65 61 52 40 32 30 28 22 17 12 7 4
0 0 0 0 0 0 0 0 0 0 0 0 0 0 5 14 23 29 34 41 47 53 59 65 69 70 70 69 67 67 66 66 64 59 52 44 36 31 26 19 15 12 9 6
0 0 0 0 0 0 0 0 0 0 0 0 0 0 5 16 28 35 39 43 49 53 59 65 67 66 63 62 62 61 63 64 62 57 51 44 36 30 24 18 13 12 10 8
0 0 0 0 0 0 0 0 0 0 0 0 0 1 5 15 27 35 40 45 49 54 58 60 59 57 54 54 54 55 57 59 56 52 47 40 34 30 25 18 13 12 10 8
0 0 0 0 0 0 0 0 0 0 0 0 1 3 6 13 23 32 39 46 51 53 53 52 52 52 52 52 52 51 51 50 48 46 42 37 33 31 26 18 13 12 9 7
0 0 0 0 0 0 0 0 0 0 0 1 3 6 9 16 25 34 43 49 52 52 49 48 51 52 52 52 50 48 44 41 41 41 38 33 30 28 24 18 13 11 8 5
0 0 0 0 0 0 0 0 0 1 2 2 4 9 18 25 32 39 46 51 52 51 49 48 50 50 48 47 46 43 38 35 36 36 31 27 25 23 19 15 13 11 8 6
0 0 0 0 0 0 0 0 1 3 6 7 8 16 26 33 39 43 48 52 53 50 46 45 45 45 43 39 38 37 33 31 31 29 25 21 20 18 15 13 12 11 9 7
0 0 0 0 0 0 1 2 3 7 13 16 17 21 28 37 44 45 46 49 51 47 42 42 43 43 39 34 33 32 29 26 24 22 19 17 17 16 14 12 11 10 9 8
1 1 0 0 0 0 1 4 6 10 17 19 22 24 27 35 42 43 43 45 46 45 44 45 45 42 36 32 30 28 25 21 18 17 15 15 16 15 14 12 10 9 8 8
2 1 0 0 0 0 3 7 8 9 13 17 21 25 29 34 41 44 46 46 46 47 47 47 45 40 34 30 26 23 20 17 15 15 15 15 15 14 13 12 11 9 7 7
1 1 0 0 0 1 4 9 10 10 12 16 21 28 35 42 46 50 53 53 51 50 48 44 41 35 29 24 20 18 16 14 14 13 13 13 12 12 12 12 10 8 6 6
1 0 1 2 3 5 9 13 14 16 20 23 27 32 42 49 51 53 55 56 53 51 46 40 34 28 21 16 14 13 12 11 11 10 10 9 9 9 10 9 8 6 4 4
1 1 2 6 9 13 17 19 20 22 27 30 33 39 46 49 49 49 52 51 49 45 39 32 25 20 15 11 10 9 7 6 7 7 7 7 7 7 7 6 5 4 3 3
1 1 3 6 11 18 23 22 21 23 26 30 36 42 46 46 45 46 47 46 42 37 30 24 17 12 9 7 6 5 4 3 4 5 6 6 6 5 4 4 4 3 3 3
0 1 3 5 10 18 23 22 20 21 24 28 34 41 44 44 44 45 45 42 38 32 25 19 14 9 7 6 6 4 3 3 4 4 5 6 6 5 4 3 3 3 3 3
Wind_Speed
1 3 4 7 6 6 3 3 4 6 4 5 6 8 12 12 11 13 13 13 13 13 11 11 12 13 11 10 10 10 9 8 6 4 4 3 3 3 3 3 5 5 5 5
2 5 10 7 5 5 5 4 5 5 2 4 5 5 9 13 15 16 16 15 15 12 10 12 12 12 12 12 11 11 10 9 8 5 4 3 3 3 3 3 4 6 6 5
7 7 6 6 6 6 6 5 5 4 3 4 5 2 3 5 7 10 13 14 14 16 17 15 15 14 13 13 13 11 10 9 8 6 4 2 2 1 1 3 3 5 5 5
6 8 5 6 7 6 6 6 4 2 2 2 4 3 7 5 5 9 11 11 13 14 13 14 15 15 15 14 12 11 10 9 8 8 6 6 5 4 5 4 4 4 5 5
7 6 6 7 9 6 7 5 2 1 3 1 1 3 7 2 5 10 12 14 14 15 16 16 16 16 14 13 12 10 10 9 8 8 8 7 5 4 3 3 4 4 4 5
8 6 6 8 7 5 4 2 6 6 5 1 4 4 6 6 10 10 12 13 13 14 14 14 12 11 10 10 10 10 10 9 9 9 8 8 8 6 5 4 4 4 3 3
4 7 5 3 3 2 3 6 4 5 4 6 4 3 9 10 9 11 12 14 13 13 14 13 12 12 12 12 11 10 10 9 9 9 8 8 7 7 7 5 5 4 3 3
5 6 6 4 7 6 4 10 9 5 4 5 4 4 8 7 7 8 8 10 11 12 13 14 14 14 13 13 11 10 11 10 9 9 8 7 7 5 4 5 4 4 4 4
7 7 6 5 6 9 5 5 9 8 2 1 5 5 6 3 1 4 5 6 10 12 13 14 14 14 13 13 13 12 12 10 9 9 8 6 6 6 5 4 4 4 4 4
6 4 6 4 2 3 8 7 6 6 4 2 5 3 4 3 1 2 5 6 6 8 10 11 12 13 12 11 10 9 9 9 8 8 7 6 6 5 4 4 4 4 3 3
5 4 5 1 6 7 4 4 6 5 6 6 2 7 6 6 6 6 5 6 7 8 9 9 9 9 8 7 7 7 8 7 7 8 6 5 4 4 4 3 4 4 3 3
6 5 3 7 7 9 8 8 8 6 4 5 4 8 6 3 4 7 7 6 7 8 8 9 9 8 8 8 7 7 7 7 7 7 6 5 4 4 4 3 3 3 2 2
7 6 1 5 4 1 4 5 6 7 5 4 4 7 4 2 4 6 10 8 7 8 7 7 7 7 7 8 8 7 7 7 6 5 5 5 4 3 3 3 2 2 2 2
9 6 7 9 8 5 4 4 5 7 5 5 7 6 4 1 5 5 8 9 8 8 8 7 6 6 7 7 7 6 6 6 6 6 6 5 4 4 3 3 3 3 3 3
8 5 4 4 4 4 5 6 6 6 8 8 8 8 8 6 7 7 8 9 9 9 8 7 6 6 6 6 6 6 5 5 6 6 6 5 4 4 4 3 3 4 4 4
5 6 3 1 2 1 3 6 7 7 6 6 6 4 6 5 5 6 8 9 9 9 8 7 7 7 7 7 7 6 6 5 6 6 5 5 5 5 5 4 4 5 5 4
3 6 5 1 3 3 3 6 6 5 4 8 8 8 6 6 8 9 10 10 9 8 7 7 6 6 6 7 7 7 6 6 6 6 5 5 6 6 6 6 6 6 4 5
6 6 5 2 3 3 8 4 3 4 1 4 6 8 10 10 8 6 8 10 10 9 7 6 6 5 6 6 7 7 7 7 7 6 6 6 6 7 6 6 6 5 4 5
7 8 5 4 2 4 6 4 1 4 1 1 7 8 8 9 8 4 3 7 10 9 8 6 6 7 7 8 7 8 7 7 7 7 6 6 6 7 7 7 6 5 6 6
6 7 7 5 4 4 6 7 2 6 0 3 7 9 9 9 6 3 4 6 8 9 9 8 8 9 9 7 8 9 7 7 6 6 6 6 6 7 7 7 6 5 6 6
4 4 5 4 3 5 6 7 2 5 6 4 6 8 8 7 7 7 8 8 8 9 10 10 10 8 8 7 9 9 7 6 6 6 7 7 7 7 7 6 6 6 6 6
5 4 4 4 3 7 5 4 1 6 4 2 4 6 7 8 10 10 10 10 10 10 10 10 10 8 7 7 9 9 7 6 7 7 8 7 7 6 6 7 6 6 6 6
4 6 6 6 7 6 2 1 2 4 4 3 3 5 10 11 11 10 9 9 10 10 9 9 10 9 7 7 8 10 7 7 8 8 8 7 7 6 5 6 6 5 4 4
2 2 4 2 1 1 1 2 2 3 6 4 5 7 10 11 11 11 10 9 9 9 9 9 10 9 7 6 8 9 8 8 8 8 7 7 7 7 6 5 4 4 4 4
1 2 3 2 1 2 3 2 3 6 8 8 6 6 8 12 11 10 10 9 9 8 7 8 9 9 8 7 8 8 8 8 9 8 7 7 7 7 6 6 5 4 3 3
1 2 4 4 5 3 2 1 4 6 6 6 7 6 6 8 9 9 8 7 8 8 8 8 8 8 8 8 8 7 7 8 9 8 7 5 5 5 5 6 6 11 8 8
Wind_Direction
192 93 217 227 207 210 241 281 281 268 240 148 156 165 180 184 181 175 178 182 183 185 179 168 168 169 168 168 167 167 168 172 163 158 159 158 174 181 184 191 191 188 186 181
45 240 230 231 251 254 259 272 284 295 282 137 159 186 187 188 190 185 183 185 184 177 170 169 168 173 176 176 175 172 174 175 175 176 171 167 165 181 189 193 194 193 190 188
196 236 225 226 252 260 265 234 245 253 339 43 106 325 247 221 204 195 190 187 182 180 178 176 174 180 178 181 181 180 178 178 179 174 159 148 129 138 187 200 204 204 197 195
236 247 237 231 239 217 251 249 236 222 97 273 132 206 269 226 209 198 194 189 187 183 181 179 176 180 184 185 182 177 176 179 182 176 174 175 180 193 207 202 200 204 202 200
236 227 216 224 231 210 224 250 238 191 129 47 5 140 271 243 212 209 196 194 190 185 182 183 183 184 184 180 178 178 177 181 185 186 184 184 194 203 203 196 198 202 206 206
243 254 210 214 229 212 211 27 22 42 69 301 239 158 258 228 209 207 197 194 190 183 181 183 183 176 174 173 176 178 181 188 188 189 187 190 195 198 197 201 200 205 204 206
274 275 261 216 209 282 110 89 35 2 13 254 256 184 238 234 211 194 189 192 188 179 177 177 175 174 175 176 179 180 183 192 190 190 192 193 195 193 197 199 198 197 200 208
196 263 246 210 179 185 173 138 153 180 214 275 316 235 256 244 207 184 180 178 175 177 180 182 180 178 181 179 177 182 185 193 194 194 195 193 191 193 201 201 193 194 202 213
180 240 260 222 182 152 152 164 163 137 175 271 289 291 315 2 123 147 151 156 173 180 180 180 178 179 180 178 179 186 188 191 195 196 193 193 193 193 197 196 189 195 203 209
166 225 262 229 139 159 158 155 102 115 148 239 292 281 245 262 210 134 135 155 174 171 172 174 175 178 180 179 177 176 185 192 193 193 196 197 197 196 192 185 193 197 200 202
166 177 283 226 178 187 147 127 119 129 151 156 237 273 241 205 185 154 142 150 158 156 160 161 166 168 165 162 163 171 183 185 184 186 188 191 190 185 180 187 202 197 188 184
167 137 232 247 234 183 163 170 146 151 207 163 166 265 282 192 168 135 124 128 138 138 147 149 147 147 149 153 167 172 183 183 185 181 176 181 179 175 180 192 198 185 173 172
153 130 121 333 328 185 162 168 151 138 133 154 166 257 303 67 102 120 121 122 127 126 125 129 131 136 147 157 162 172 177 175 171 165 164 165 160 160 167 175 168 145 134 127
130 124 156 189 212 197 197 211 166 133 158 196 204 219 269 159 126 128 125 133 134 129 123 123 128 141 151 153 151 153 155 153 149 150 156 157 155 155 155 146 126 117 113 106
124 147 175 205 226 192 197 216 202 180 182 181 208 201 217 203 171 154 141 136 133 130 128 135 141 142 140 137 137 139 136 137 139 142 148 147 133 124 119 115 112 104 101 100
111 143 147 304 315 236 228 229 215 207 186 180 170 212 214 184 144 129 138 139 137 140 141 144 143 141 142 141 136 130 128 131 134 134 135 124 116 114 106 102 99 94 94 90
107 121 119 243 312 37 277 243 214 212 195 170 187 205 163 130 135 149 151 142 137 136 138 142 144 141 141 137 134 128 127 121 116 115 115 113 116 113 110 111 103 99 97 92
126 108 116 116 64 212 243 245 184 173 199 176 160 163 154 149 149 144 145 141 137 137 142 142 141 134 124 121 116 114 113 112 111 108 105 106 111 115 111 106 103 104 102 93
137 127 113 114 144 281 299 306 192 154 285 202 149 149 145 132 92 64 131 138 142 144 144 137 131 126 116 114 114 111 108 108 109 111 110 110 112 111 109 108 107 105 99 90
83 103 112 120 144 218 260 288 277 110 255 268 147 144 143 127 120 193 165 126 124 127 125 121 117 112 111 115 115 109 109 108 109 112 110 108 108 109 111 110 106 100 98 94
69 75 118 136 176 251 266 298 11 124 212 232 155 148 145 148 162 159 138 126 127 125 122 120 118 117 120 120 114 111 109 109 110 106 102 101 102 105 107 106 102 102 99 93
152 138 160 141 166 247 293 5 101 200 199 152 136 134 124 122 118 122 126 126 126 125 123 122 119 115 113 115 115 112 113 113 108 105 102 100 99 103 106 106 102 101 104 99
164 174 169 172 201 233 284 125 246 161 123 105 107 120 123 123 127 128 127 126 127 128 125 121 121 117 113 113 117 120 121 117 110 104 101 98 91 87 95 106 109 105 102 103
335 64 105 111 205 227 35 44 53 92 98 101 116 119 124 127 131 129 129 127 126 126 127 126 124 123 122 119 115 121 122 117 111 106 100 97 94 85 77 77 87 100 104 110
260 49 77 101 214 34 23 36 99 91 91 89 85 94 119 125 130 132 133 133 131 128 127 129 130 129 130 126 120 122 123 120 114 110 104 97 94 96 84 70 59 79 79 124
271 150 146 203 212 168 229 278 104 104 104 110 103 88 102 120 123 122 128 131 132 133 131 128 127 129 131 128 126 126 127 128 125 120 116 113 111 106 104 101 79 54 64 76